[[{"header":{"parameterUnit":"m.s-1","parameterCategory":1,"la1":30.2991,"la2":30.254,"lo1":-89.0895,"lo2":-89.0444,"dy":0.0017,"dx":0.0017,"nx":28,"ny":28,"refTime":"2025-08-27T09:00:00:Z","depth":0,"parameterNumber":2,"parameterNumberName":"U-component_of_WINDS"},"data":[0,0,0,0,0,0,0,0,0,0,0,0,0,0,0,0,0,0,0,0,0,0,0,0,0,0,0,0,0,0,0,0,0,0,0,0,0,0,0,0,0,0,0,0,0,0,0,0,0,0,0,0,0,0,0,0,0,0,-1.6959,-1.696,0,-1.704,-1.7041,-1.7041,-1.7044,-1.7043,-1.7042,-1.7041,-1.7124,-1.7127,-1.713,0,0,0,0,0,0,0,0,0,0,0,0,0,-1.6806,-1.6808,-1.6959,-1.696,-1.6961,-1.7039,-1.7041,-1.7042,-1.7044,-1.7043,-1.7041,-1.704,-1.7123,-1.7127,-1.713,0,0,0,0,0,0,0,0,0,0,0,0,0,-1.6878,-1.6809,-1.6958,-1.6971,-1.6973,-1.7039,-1.7041,-1.7042,-1.7044,-1.7042,-1.7041,-1.704,-1.7122,-1.7126,-1.7131,-1.719,0,0,-1.7145,-1.7147,0,0,0,0,0,0,0,0,-1.6874,-1.6883,-1.6968,-1.697,-1.6973,-1.703,-1.7017,-1.7092,-1.7044,-1.7017,-1.7041,-1.7039,-1.7094,-1.7101,-1.7119,-1.7194,-1.7197,-1.7146,-1.7149,-1.7151,-1.7152,0,0,0,0,0,0,0,-1.6869,-1.688,-1.6991,-1.697,-1.6972,-1.6973,-1.6981,-1.7031,-1.7063,-1.7019,-1.702,-1.7029,-1.7095,-1.7115,-1.7121,-1.7199,-1.7146,-1.715,-1.7153,-1.7154,-1.7324,-1.7326,0,0,0,0,0,0,-1.6861,-1.6876,-1.6988,-1.6993,-1.6919,-1.6977,-1.6986,-1.7013,-1.7062,-1.7068,-1.703,-1.7029,-1.7107,-1.7116,-1.7124,-1.7195,-1.7151,-1.7155,-1.7158,-1.7323,-1.7325,-1.7326,0,0,0,0,0,0,-1.6858,-1.6871,-1.6985,-1.6935,-1.6949,-1.6981,-1.7011,-1.7015,-1.7035,-1.7071,-1.7076,-1.7045,-1.7107,-1.7118,-1.7173,-1.7198,-1.7157,-1.7161,-1.7321,-1.7323,-1.7325,-1.7338,0,0,0,0,0,0,-1.6853,-1.687,-1.6893,-1.6935,-1.6952,-1.7033,-1.7013,-1.7018,-1.7043,-1.7042,-1.7086,-1.7092,-1.7106,-1.7166,-1.7178,-1.7204,-1.7165,-1.7318,-1.7322,-1.7325,-1.7336,-1.7341,-1.7345,0,0,0,0,0,-1.6848,-1.6894,-1.6894,-1.6907,-1.6981,-1.7034,-1.7044,-1.7059,-1.7045,-1.7068,-1.7091,-1.709,-1.7194,-1.7172,-1.7185,-1.7213,-1.7317,-1.7321,-1.7324,-1.7334,-1.734,-1.7345,0,0,0,0,0,0,-1.6854,-1.6899,-1.69,-1.6961,-1.6993,-1.7034,-1.7064,-1.7066,-1.7103,-1.71,-1.7119,-1.7128,-1.7183,-1.7204,-1.7179,-1.7272,-1.7254,-1.726,-1.7256,-1.7262,-1.7267,-1.726,-1.7169,0,0,0,0,0,-1.6862,-1.6901,-1.6939,-1.6989,-1.7005,-1.7032,-1.7055,-1.7065,-1.7099,-1.7113,-1.714,-1.7173,-1.7213,-1.7239,-1.7278,-1.7339,-1.7348,-1.7365,-1.737,-1.7373,-1.7378,-1.7411,-1.7418,-1.7339,-1.7339,-1.7339,0,0,-1.6879,-1.6909,-1.6933,-1.6991,-1.7017,-1.7057,-1.7043,-1.7086,-1.7116,-1.712,-1.7173,-1.7194,-1.7233,-1.7291,-1.7318,-1.731,-1.7403,-1.7378,-1.7381,-1.7384,-1.7415,-1.7423,-1.743,-1.7341,-1.7341,-1.734,0,0,-1.6931,-1.6958,-1.7002,-1.7029,-1.7068,-1.7086,-1.7096,-1.7137,-1.715,-1.7205,-1.7208,-1.7244,-1.7313,-1.734,-1.7362,-1.7424,-1.7424,-1.7436,-1.7461,-1.7492,-1.7498,-1.7504,-1.7524,-1.7532,-1.7441,-1.7442,-1.7442,0,-1.6948,-1.7008,-1.7024,-1.7067,-1.7092,-1.7097,-1.7141,-1.7166,-1.7217,-1.7234,-1.7224,-1.731,-1.7336,-1.74,-1.7415,-1.7434,-1.7446,-1.7431,-1.7496,-1.7502,-1.7507,-1.7527,-1.7535,-1.7443,-1.7442,-1.7442,-1.7442,0,-1.7025,-1.7067,-1.7098,-1.7146,-1.7174,-1.7217,-1.724,-1.7267,-1.7274,-1.7292,-1.7347,-1.7379,-1.7424,-1.744,-1.7448,-1.7505,-1.7498,-1.7492,-1.7474,-1.7516,-1.7534,-1.7542,-1.7444,-1.7444,-1.7443,-1.7443,0,0,-1.7082,-1.7138,-1.7149,-1.717,-1.7215,-1.7247,-1.7291,-1.7334,-1.7356,-1.7391,-1.7427,-1.7485,-1.748,-1.7506,-1.7516,-1.7544,-1.7589,-1.7535,-1.7536,-1.7542,-1.7652,-1.7655,-1.7663,-1.759,-1.7592,-1.7593,-1.7648,0,-1.7137,-1.7214,-1.723,-1.7296,-1.7334,-1.7339,-1.7377,-1.7408,-1.7426,-1.7461,-1.7481,-1.7521,-1.7512,-1.7527,-1.7555,-1.7577,-1.7611,-1.7574,-1.7623,-1.7624,-1.7611,-1.7674,-1.7677,-1.7728,-1.7656,-1.7657,-1.7658,0,-1.7212,-1.7247,-1.7317,-1.7355,-1.7372,-1.7405,-1.7446,-1.748,-1.7515,-1.7526,-1.7555,-1.7562,-1.7607,-1.7588,-1.7649,-1.7624,-1.7645,-1.7659,-1.7661,-1.7665,-1.7642,-1.7677,-1.7745,-1.7751,-1.767,-1.7669,-1.7668,0,-1.7244,-1.731,-1.7359,-1.7378,-1.7424,-1.7447,-1.7468,-1.7502,-1.7527,-1.7562,-1.7578,-1.7619,-1.7641,-1.7673,-1.7691,-1.7675,-1.775,-1.7733,-1.776,-1.7759,-1.7774,-1.7773,-1.7844,-1.7791,-1.7791,-1.779,-1.779,0,-1.7303,-1.7344,-1.7374,-1.7405,-1.7452,-1.747,-1.7516,-1.7536,-1.7566,-1.76,-1.7609,-1.764,-1.7663,-1.7699,-1.7713,-1.7761,-1.7771,-1.7781,-1.7784,-1.7779,-1.7778,-1.7792,-1.7788,-1.7793,-1.7792,-1.7792,-1.7791,0,-1.7346,-1.7368,-1.7422,-1.7461,-1.7472,-1.7505,-1.7538,-1.7568,-1.7586,-1.763,-1.7641,-1.767,-1.7711,-1.7733,-1.7786,-1.7795,-1.7848,-1.7851,-1.7836,-1.7837,-1.7862,-1.7859,-1.7944,-1.7955,-1.7896,-1.7896,-1.7897,0,-1.7381,-1.7413,-1.7456,-1.7479,-1.75,-1.7537,-1.7563,-1.7582,-1.7608,-1.765,-1.7674,-1.7716,-1.7751,-1.7817,-1.7843,-1.7883,-1.7884,-1.7912,-1.789,-1.7884,-1.7883,-1.788,-1.7882,-1.7915,-1.7915,-1.7916,-1.7916,0,-1.7441,-1.745,-1.7485,-1.7525,-1.7554,-1.7587,-1.7618,-1.7637,-1.7661,-1.769,-1.7732,-1.7759,-1.7812,-1.7853,-1.7895,-1.7916,-1.792,-1.7923,-1.7931,-1.7925,-1.7915,-1.7919,-1.7844,-1.792,-1.792,-1.7919,-1.7919,-1.7919,-1.748,-1.7508,-1.7542,-1.7581,-1.7607,-1.7636,-1.7666,-1.7688,-1.7723,-1.7767,-1.7777,-1.7821,-1.7855,-1.7912,-1.7934,-1.7969,-1.7963,-1.7975,-1.7978,-1.798,-1.7981,-1.7911,-1.7977,-1.7977,-1.7977,-1.7977,-1.7977,0,-1.7538,-1.756,-1.7596,-1.764,-1.7671,-1.7672,-1.7707,-1.7732,-1.7771,-1.7803,-1.7836,-1.7885,-1.7925,-1.7953,-1.7994,-1.8016,-1.8019,-1.8026,-1.8024,-1.8028,-1.7984,-1.7972,-1.8023,-1.8023,-1.8023,-1.8023,-1.8023,-1.8023,-1.7572,-1.7619,-1.7632,-1.7693,-1.7715,-1.7758,-1.7777,-1.7804,-1.7829,-1.7883,-1.7916,-1.7934,-1.7964,-1.8007,-1.8044,-1.8051,-1.8065,-1.8072,-1.8079,-1.8037,-1.8032,-1.8027,-1.8016,-1.8075,-1.8075,-1.812,-1.8121,-1.8121]},{"header":{"parameterUnit":"m.s-1","parameterCategory":1,"la1":30.2991,"la2":30.254,"lo1":-89.0895,"lo2":-89.0444,"dy":0.0017,"dx":0.0017,"nx":28,"ny":28,"refTime":"2025-08-27T09:00:00:Z","depth":0,"parameterNumber":3,"parameterNumberName":"V-component_of_WINDS"},"data":[0,0,0,0,0,0,0,0,0,0,0,0,0,0,0,0,0,0,0,0,0,0,0,0,0,0,0,0,0,0,0,0,0,0,0,0,0,0,0,0,0,0,0,0,0,0,0,0,0,0,0,0,0,0,0,0,0,0,-3.0007,-3.0008,0,-3.0079,-3.008,-3.0081,-3.0107,-3.0107,-3.0107,-3.0106,-3.0175,-3.0177,-3.0179,0,0,0,0,0,0,0,0,0,0,0,0,0,-2.9887,-2.9889,-3.0007,-3.0008,-3.0009,-3.0079,-3.008,-3.0081,-3.0107,-3.0107,-3.0106,-3.0106,-3.0175,-3.0177,-3.0179,0,0,0,0,0,0,0,0,0,0,0,0,0,-2.9947,-2.9889,-3.0007,-3.003,-3.0033,-3.0079,-3.008,-3.0082,-3.0107,-3.0107,-3.0106,-3.0106,-3.0174,-3.0177,-3.018,-3.0206,0,0,-3.0189,-3.0191,0,0,0,0,0,0,0,0,-2.9943,-2.9951,-3.0026,-3.0029,-3.0032,-3.0084,-3.0063,-3.0123,-3.0107,-3.0079,-3.0106,-3.0106,-3.0145,-3.015,-3.0164,-3.0209,-3.0212,-3.0189,-3.0191,-3.0193,-3.0194,0,0,0,0,0,0,0,-2.9939,-2.9948,-3.0036,-3.0027,-3.0031,-3.0036,-3.0044,-3.0075,-3.0113,-3.0081,-3.0083,-3.0092,-3.0146,-3.0161,-3.0166,-3.0213,-3.0189,-3.0192,-3.0194,-3.0195,-3.0283,-3.0284,0,0,0,0,0,0,-2.9932,-2.9944,-3.0033,-3.0038,-2.9986,-3.0038,-3.0047,-3.0068,-3.0113,-3.0119,-3.0092,-3.0093,-3.0156,-3.0163,-3.0169,-3.0203,-3.0193,-3.0196,-3.0197,-3.0283,-3.0283,-3.0284,0,0,0,0,0,0,-2.9929,-2.9939,-3.003,-2.9992,-3.0004,-3.0041,-3.0063,-3.0069,-3.0084,-3.0121,-3.0127,-3.0101,-3.0156,-3.0164,-3.0197,-3.0205,-3.0197,-3.02,-3.0282,-3.0283,-3.0284,-3.027,0,0,0,0,0,0,-2.9925,-2.9938,-2.995,-2.9992,-3.0006,-3.0059,-3.0064,-3.0071,-3.009,-3.0092,-3.0131,-3.0137,-3.0157,-3.0192,-3.02,-3.0209,-3.0202,-3.0282,-3.0283,-3.0283,-3.027,-3.027,-3.0271,0,0,0,0,0,-2.9921,-2.9942,-2.995,-2.9961,-3.0021,-3.0059,-3.0067,-3.0091,-3.0091,-3.0102,-3.0125,-3.0135,-3.0203,-3.0195,-3.0204,-3.0215,-3.0281,-3.0282,-3.0283,-3.027,-3.027,-3.0271,0,0,0,0,0,0,-2.9898,-2.9948,-2.9958,-2.9993,-3.0022,-3.0064,-3.0078,-3.009,-3.0119,-3.0119,-3.0146,-3.0154,-3.0184,-3.0203,-3.0193,-3.0243,-3.0243,-3.0246,-3.0229,-3.023,-3.023,-3.0225,-3.0205,0,0,0,0,0,-2.9897,-2.9926,-2.9967,-2.9994,-3.0008,-3.0041,-3.0058,-3.0075,-3.0105,-3.0116,-3.0142,-3.017,-3.0197,-3.0215,-3.0242,-3.0273,-3.0282,-3.0285,-3.0285,-3.0285,-3.0287,-3.0305,-3.0306,-3.0287,-3.0287,-3.0287,0,0,-2.9895,-2.9926,-2.9942,-2.999,-3.0015,-3.0042,-3.0051,-3.0079,-3.0099,-3.012,-3.0153,-3.0173,-3.0205,-3.0237,-3.0253,-3.0254,-3.0294,-3.0286,-3.0286,-3.0288,-3.0306,-3.0308,-3.0309,-3.0288,-3.0288,-3.0288,0,0,-2.9906,-2.9933,-2.9959,-2.9983,-3.002,-3.0042,-3.0048,-3.0088,-3.0103,-3.0137,-3.0153,-3.0176,-3.0223,-3.0246,-3.0264,-3.0284,-3.0294,-3.0292,-3.0293,-3.031,-3.0311,-3.0313,-3.0319,-3.0321,-3.0294,-3.0294,-3.0294,0,-2.9899,-2.9942,-2.997,-2.9998,-3.0018,-3.004,-3.0066,-3.0088,-3.0131,-3.0144,-3.0145,-3.0205,-3.0228,-3.0266,-3.0271,-3.0284,-3.0291,-3.0287,-3.0309,-3.0311,-3.0312,-3.0319,-3.0322,-3.0293,-3.0293,-3.0293,-3.0293,0,-2.9931,-2.9961,-2.9977,-3.0021,-3.0043,-3.0069,-3.0099,-3.0118,-3.0132,-3.0153,-3.0187,-3.0216,-3.025,-3.026,-3.0273,-3.0299,-3.0299,-3.0304,-3.0305,-3.0313,-3.032,-3.0323,-3.0292,-3.0292,-3.0293,-3.0293,0,0,-2.9928,-2.9988,-2.9993,-3.0013,-3.0056,-3.0079,-3.0106,-3.0141,-3.0157,-3.0186,-3.0208,-3.0248,-3.0254,-3.0273,-3.029,-3.0305,-3.0318,-3.0308,-3.0309,-3.0308,-3.0348,-3.0344,-3.0346,-3.0326,-3.0326,-3.0327,-3.0345,0,-2.9945,-2.9996,-3.0022,-3.0061,-3.0089,-3.011,-3.0134,-3.0162,-3.0182,-3.0207,-3.0229,-3.0257,-3.0262,-3.0274,-3.029,-3.0313,-3.0326,-3.0312,-3.0346,-3.0346,-3.0337,-3.035,-3.0345,-3.0361,-3.0348,-3.0349,-3.0349,0,-2.997,-3.0002,-3.0044,-3.0085,-3.0097,-3.0118,-3.0152,-3.0176,-3.0208,-3.0222,-3.0245,-3.0261,-3.0289,-3.0288,-3.0327,-3.0316,-3.0332,-3.0345,-3.0346,-3.035,-3.0348,-3.0353,-3.0367,-3.0369,-3.0353,-3.0353,-3.0353,0,-2.9964,-3.0016,-3.0049,-3.0065,-3.0113,-3.0127,-3.0148,-3.018,-3.0199,-3.0228,-3.0241,-3.0272,-3.0289,-3.0312,-3.0336,-3.0333,-3.0372,-3.0373,-3.0383,-3.0383,-3.039,-3.0389,-3.0406,-3.04,-3.04,-3.04,-3.04,0,-2.9979,-3.0004,-3.0047,-3.0067,-3.0095,-3.0124,-3.0151,-3.0172,-3.0201,-3.0224,-3.0244,-3.0265,-3.0296,-3.0321,-3.0339,-3.0368,-3.0375,-3.0386,-3.0391,-3.0384,-3.0383,-3.0394,-3.0393,-3.0401,-3.0401,-3.0401,-3.04,0,-2.9976,-3.0006,-3.0043,-3.0086,-3.0097,-3.0116,-3.0152,-3.0172,-3.0193,-3.0223,-3.0231,-3.0265,-3.0295,-3.0321,-3.036,-3.0373,-3.0402,-3.0408,-3.0392,-3.0394,-3.0403,-3.0402,-3.0427,-3.0432,-3.0423,-3.0423,-3.0424,0,-2.9984,-3.0004,-3.005,-3.0068,-3.0088,-3.0117,-3.0137,-3.0166,-3.0186,-3.0224,-3.0239,-3.0271,-3.0298,-3.0345,-3.0372,-3.0402,-3.0408,-3.0415,-3.0413,-3.0406,-3.0408,-3.0406,-3.0408,-3.0415,-3.0415,-3.0415,-3.0415,0,-2.9994,-3.0008,-3.0038,-3.0072,-3.0097,-3.0125,-3.0153,-3.0167,-3.02,-3.0221,-3.0254,-3.0275,-3.0316,-3.0347,-3.038,-3.04,-3.0412,-3.0416,-3.0419,-3.0413,-3.0403,-3.0408,-3.0392,-3.0415,-3.0415,-3.0415,-3.0415,-3.0415,-2.9997,-3.0016,-3.0051,-3.0083,-3.0108,-3.0135,-3.0155,-3.018,-3.0208,-3.0245,-3.026,-3.0292,-3.0323,-3.037,-3.0389,-3.0414,-3.0416,-3.0422,-3.0423,-3.0424,-3.0423,-3.0399,-3.042,-3.042,-3.042,-3.042,-3.042,0,-3.0008,-3.0032,-3.0061,-3.0102,-3.0127,-3.0139,-3.0171,-3.019,-3.0219,-3.0248,-3.0275,-3.0312,-3.0342,-3.0372,-3.0404,-3.0418,-3.0425,-3.0425,-3.0424,-3.0428,-3.0419,-3.0412,-3.0419,-3.0419,-3.0419,-3.0419,-3.0419,-3.0419,-3.0016,-3.0049,-3.0067,-3.0112,-3.0136,-3.0169,-3.0187,-3.0211,-3.0234,-3.0275,-3.0301,-3.0321,-3.035,-3.0384,-3.0412,-3.042,-3.043,-3.0429,-3.0438,-3.0429,-3.0429,-3.0429,-3.0423,-3.0431,-3.0431,-3.0446,-3.0446,-3.0446]}]]